Regional Weather Roundup
Issued by NWS

Home | Current Version | Previous Version | Graphics & Text | Print | Product List | Glossary On
Versions: 1 2 3 4 5 6 7 8 9 10 11 12 13 14 15 16 17 18 19 20 21 22 23 24 25 26 27 28 29 30 31 32 33 34 35 36 37 38 39 40 41 42 43 44 45 46 47 48 49 50
000
ASUS43 KMKX 291511
RWRWI

WISCONSIN REGIONAL WEATHER ROUNDUP
NATIONAL WEATHER SERVICE MILWAUKEE/SULLIVAN WI
1000 AM CDT SAT AUG 29 2015

NOTE: "FAIR" INDICATES FEW OR NO CLOUDS BELOW 12,000 FEET WITH NO
SIGNIFICANT WEATHER AND/OR OBSTRUCTIONS TO VISIBILITY.

WIZ001-002-006>008-014>016-023>028-291600-
NORTHWEST WISCONSIN

CITY           SKY/WX    TMP DP  RH WIND       PRES   REMARKS
SUPERIOR ARPT  CLOUDY    64  58  82 SW9       30.03S
ASHLAND        SUNNY     66  60  81 SW8       30.04R
HAYWARD        SUNNY     63  56  78 SW7       30.07R
SIREN          SUNNY     64  58  78 W3        30.07R
CUMBERLAND     FOG       55  55 100 CALM      30.08R VSB 1
RICE LAKE      CLOUDY    60  58  91 W3        30.08R
CHETEK         CLOUDY   N/A N/A N/A CALM      30.07R
LADYSMITH      CLOUDY    62  58  89 CALM      30.08R
EAU CLAIRE     CLOUDY    60  57  89 CALM      30.05S
MENOMONIE      CLOUDY    60  59  96 CALM      30.06S FOG
NEW RICHMOND   CLOUDY    58  58  99 SW3       30.08R FOG
OSCEOLA        CLOUDY    59  59 100 SE5       30.11R
$$

WIZ003>005-009-010-017-018-291600-
NORTH CENTRAL WISCONSIN

CITY           SKY/WX    TMP DP  RH WIND       PRES   REMARKS
MANITOWISH WTR SUNNY     63  57  80 W6        30.08R
ARBOR VITAE    MOSUNNY   64  57  77 SW7       30.07R
WOODRUFF       MOSUNNY   64  57  77 SW7       30.07R
RHINELANDER    CLOUDY    63  58  83 VRB5      30.08R
EAGLE RIVER    SUNNY     65  54  69 SW8       30.07R
LAND O LAKES   SUNNY     66  56  68 W6        30.07R
PHILLIPS       MOSUNNY   62  57  83 CALM      30.07R
TOMAHAWK       CLOUDY    61  60  96 CALM      30.08R
MEDFORD        CLOUDY    60  59  97 S7        30.05F FOG
MERRILL        CLOUDY    62  59  90 SE5       30.07S
$$

WIZ029-030-035-036-043>047-291600-
CENTRAL WISCONSIN

CITY           SKY/WX    TMP DP  RH WIND       PRES   REMARKS
WAUSAU         CLOUDY    62  59  90 S5        30.05R
MOSINEE        CLOUDY    61  61 100 SE5       30.08R
MARSHFIELD     CLOUDY    63  58  83 SE6       30.06S
STEVENS POINT  CLOUDY    59  58  98 CALM      30.08R FOG
WAUPACA        CLOUDY    63  62  97 E5        30.06F FOG
WAUTOMA        CLOUDY    63  63 100 E5        30.06F FOG
WISC RAPIDS    NOT AVBL
CAMP DOUGLAS   CLOUDY    63  63 100 NE5       30.05R
$$

WIZ011>013-019>022-031-037>040-048>050-291600-
NORTHEAST WISCONSIN

CITY           SKY/WX    TMP DP  RH WIND       PRES   REMARKS
ANTIGO         CLOUDY    62  58  88 S7        30.09R
SHAWANO        CLOUDY    63  61  91 SE5       30.07R
OCONTO         CLOUDY    61  61 100 SE7       30.07S
STURGEON BAY   CLOUDY    59  55  88 S8        30.11S
GREEN BAY      CLOUDY    62  59  90 E6        30.08S
MANITOWOC      CLOUDY    60  59  96 SE8       30.08R
APPLETON       CLOUDY    61  61 100 VRB6      30.05F
CLINTONVILLE   CLOUDY    61  59  94 SE6       30.06F FOG
OSHKOSH        CLOUDY    62  59  90 E7        30.06R
$$

WIZ032>034-041-042-053>061-291600-
SOUTHWEST WISCONSIN

CITY           SKY/WX    TMP DP  RH WIND       PRES   REMARKS
LA CROSSE      CLOUDY    64  59  83 E5        30.04F
SPARTA         CLOUDY    62  59  90 E7        30.05S
VIROQUA        CLOUDY    61  61 100 NE5       30.05R
BOSCOBEL       CLOUDY    65  62  90 CALM      30.02S
PRAIRIE DU CHI CLOUDY    63  61  96 N6        30.03R
PLATTEVILLE    CLOUDY    66  65  97 CALM      30.01R
$$

WIZ056-057-062-063-064-067-068-291600-
SOUTH CENTRAL WISCONSIN

CITY           SKY/WX    TMP DP  RH WIND       PRES   REMARKS
REEDSBURG      CLOUDY    62  61  99 E5        30.02F FOG
BARABOO/DELLS  CLOUDY    61  60  95 E9        30.04S FOG
LONE ROCK      CLOUDY    65  62  90 NE9       30.03R
MINERAL POINT  CLOUDY    64  64 100 CALM      30.02S FOG
MADISON        DRIZZLE   63  62  97 SE5       30.03R FOG
MIDDLETON      CLOUDY    65  65 100 E5        30.03R
WATERTOWN      CLOUDY    62  62 100 SE5       30.04R FOG
MONROE         CLOUDY    63  63 100 SE6       30.03R FOG
JANESVILLE     NOT AVBL
$$

WIZ051-052-058>065-066-070>072-291600-
SOUTHEAST WISCONSIN

CITY           SKY/WX    TMP DP  RH WIND       PRES   REMARKS
MILWAUKEE      LGT RAIN  62  59  90 SE9       30.05R FOG
WAUKESHA       DRIZZLE   61  61 100 SE3       30.06R
MILWAUKEE/TIMM DRIZZLE   61  59  94 SE6       30.06R FOG
RACINE         CLOUDY    63  60  90 S7        30.07R
BURLINGTON     CLOUDY    60  60  98 SE3       30.04S FOG
KENOSHA        CLOUDY    62  60  93 SE7       30.05S
FOND DU LAC    CLOUDY    63  61  93 E7        30.06R
SHEBOYGAN      CLOUDY    63  61  93 SE6       30.06F
WEST BEND      DRIZZLE   61  59  94 CALM      30.05S
JUNEAU         DRIZZLE   61  60  97 E7        30.06R
$$

LSZ147-162-291600-
LAKE SUPERIOR

STATION/POSITION TIME  TEMP    WIND        PRES    WAVE
                       AIR SEA DIR/SP/G            HT/PER
                 (UTC) (F)     (DEG/KT/KT) (MB)    (FT/S)
W MID LAKE BUOY  1450   56 55  250/ 14/ 16 1016.1R   3/ 4
DEVILS ISLAND    1500   57     250/ 15/ 18 1016.8R
PORT WING        1400   63     220/  5/  8 1016.9S
SAXON HARBOR     1400   63      CALM  /  4 1016.6R
$$

LMZ867-665-643>646-291600-
LAKE MICHIGAN

STATION/POSITION TIME  TEMP    WIND        PRES    WAVE
                       AIR SEA DIR/SP/G            HT/PER
                 (UTC) (F)     (DEG/KT/KT) (MB)    (FT/S)
CHAMBERS ISLAND  1400   60     170/  1/  4 1018.6F
S GREEN BAY BUOY 1500   60 62  140/ 12/ 14 1019.6R
N MID LAKE BUOY  1450   62 64  200/  8/ 10 1018.2F   2/ 4
NORTHPORT PIER   1400   60     150/  5/  7 1018.3F
SISTER BAY       1419   62     160/  4/  6   N/A
ALGOMA LAKESHORE 1414             CALM       N/A
SHEBOYGAN LAKESH 1500   55     170/  2/  3 1018.3R
PORT WASHINGTON  1400   57     150/  3/  6 1018.3
ATWATER BUOY     1500   55 48  180/  4/  6 1019.0R
MILWAUKEE LAKESH 1400   55     140/  5/  6   N/A
S MID LAKE BUOY  1450   66 68  140/  8/ 10 1017.6F
KENOSHA   LAKESH 1500   58     180/  3/  5 1017.6R
$$

TC  - TEMPERATURE IN CELSIUS
VSB - VISIBILITY IN STATUTE MILES
WCI - WIND CHILL INDEX
HX  - HEAT INDEX



USA.gov is the U.S. government's official web portal to all federal, state and local government web resources and services.